This is the latest recevied weather packets stored in our database for station/object K7FLA. If no packets are shown the sender has not sent any weather packets the latest 1 day(s).
| Time | Temp. | Humidity | Pressure | Rain* | Wind** | Luminosity | Snow |
|---|---|---|---|---|---|---|---|
| 1777974963 | 9.44° C | 90% | 1093 hPa | 0 mm | 0.45 m/s, 133° | 0 W/m² | - |
| 1777974659 | 9.44° C | 90% | 1093.2 hPa | 0 mm | 0 m/s | 0 W/m² | - |
| 1777974356 | 9.44° C | 90% | 1093.4 hPa | 0 mm | 0 m/s | 0 W/m² | - |
| 1777974052 | 9.44° C | 91% | 1093.4 hPa | 0 mm | 0.45 m/s, 182° | 0 W/m² | - |
| 1777973749 | 9.44° C | 91% | 1093.3 hPa | 0 mm | 0.45 m/s, 212° | 0 W/m² | - |
| 1777973446 | 9.44° C | 91% | 1093.3 hPa | 0 mm | 0.45 m/s, 181° | 0 W/m² | - |
| 1777973143 | 9.44° C | 91% | 1093.4 hPa | 0 mm | 0.89 m/s, 188° | 0 W/m² | - |
| 1777972842 | 8.89° C | 91% | 1093.5 hPa | 0 mm | 0.89 m/s, 233° | 0 W/m² | - |
| 1777972538 | 8.89° C | 91% | 1093.6 hPa | 1.27 mm | 0 m/s | 0 W/m² | - |
| 1777972237 | 8.89° C | 91% | 1093.6 hPa | 1.27 mm | 0.45 m/s, 234° | 0 W/m² | - |
| 1777971934 | 9.44° C | 91% | 1093.7 hPa | 0 mm | 0.45 m/s, 213° | 0 W/m² | - |
| 1777971632 | 9.44° C | 90% | 1093.7 hPa | 0 mm | 1.34 m/s, 204° | 0 W/m² | - |
| 1777971330 | 9.44° C | 89% | 1093.8 hPa | 0 mm | 1.79 m/s, 182° | 0 W/m² | - |
| 1777971028 | 10° C | 91% | 1093.7 hPa | 0 mm | 0.89 m/s, 187° | 0 W/m² | - |
| 1777970726 | 10° C | 91% | 1094 hPa | 1.78 mm | 0.89 m/s, 169° | 0 W/m² | - |
| 1777970423 | 10° C | 90% | 1093.9 hPa | 0 mm | 0.45 m/s, 225° | 0 W/m² | - |
| 1777970120 | 10° C | 90% | 1093.9 hPa | 0 mm | 0.45 m/s, 225° | 0 W/m² | - |
| 1777969817 | 10° C | 89% | 1094.1 hPa | 0 mm | 0.89 m/s, 199° | 0 W/m² | - |
| 1777969512 | 10° C | 89% | 1094.1 hPa | 0 mm | 0.89 m/s, 228° | 0 W/m² | - |
| 1777969209 | 10° C | 89% | 1094.2 hPa | 0 mm | 0.45 m/s, 228° | 0 W/m² | - |
| 1777968906 | 10° C | 89% | 1094.1 hPa | 0 mm | 0 m/s | 0 W/m² | - |
| 1777968602 | 10° C | 89% | 1094.5 hPa | 0 mm | 0.45 m/s, 196° | 0 W/m² | - |
| 1777968299 | 10° C | 89% | 1094.5 hPa | 0 mm | 0.45 m/s, 194° | 0 W/m² | - |
| 1777967995 | 10° C | 89% | 1094.5 hPa | 0 mm | 0 m/s | 0 W/m² | - |
| 1777967691 | 10° C | 89% | 1094.2 hPa | 0 mm | 0.45 m/s, 195° | 0 W/m² | - |
* Rain latest hour (hover to see other rain measurements)
** Current wind speed in m/s (hover to see current wind gust speed)